Weather History for Monett, MO

Change the Weather History Date:

Thursday, March 28, 2013

  Actual Average (KJLN) Record (KJLN)
Temperature  
Mean Temperature 56 °F 53 °F  
Max Temperature 68 °F 64 °F 87 °F (1963)
Min Temperature 44 °F 41 °F 25 °F (1948)
Degree Days  
Heating Degree Days 9 13  
Month to date heating degree days 471  
Since 1 July heating degree days 3725  
Cooling Degree Days 0 1  
Month to date cooling degree days 2  
Year to date cooling degree days 3  
Growing Degree Days 6 (Base 50)    
Moisture  
Dew Point 39 °F    
Average Humidity 55    
Maximum Humidity 72    
Minimum Humidity 43    
Precipitation  
Precipitation 0.00 in 0.12 in 2.10 in (1988)
Month to date precipitation 3.04  
Year to date precipitation 7.39  
Sea Level Pressure  
Sea Level Pressure 30.16 in    
Wind  
Wind Speed 10 mph (South)    
Max Wind Speed 16 mph    
Max Gust Speed 21 mph    
Visibility 10 miles    
Events      
T = Trace of Precipitation, MM = Missing Value Source: NWS Daily Summary

Daily Weather History Graph

Daily Weather History Graph

Search for Another Location

Airport:

Trip Planner

Search our weather history database for the weather conditions in past years. The results will help you decide how hot, cold, wet, or windy it might be!

Date:

Astronomy

Mar. 28, 2013 Rise Set
Actual Time 7:07 AM CDT 7:35 PM CDT
Civil Twilight 6:41 AM CDT 8:01 PM CDT
Nautical Twilight 6:10 AM CDT 8:31 PM CDT
Astronomical Twilight 5:39 AM CDT 9:03 PM CDT
Moon 9:24 PM CDT (3/28) 7:38 AM CDT (3/28)
Length of Visible Light 13h 19m
Length of Day
12h 27m
Full, 98% of the Moon is Illuminated
Mar 28
Full
Apr 2
Last Quarter
Apr 10
New
Apr 18
First Quarter
Apr 25
Full

Hourly Weather History & Observations

Time (CDT) Temp. Windchill Dew Point Humidity Pressure Visibility Wind Dir Wind Speed Gust Speed Precip Events Conditions
12:15 AM 46.4 °F 41.1 °F 30.2 °F 53% 30.19 in 10.0 mi ESE 11.5 mph - N/A   Overcast
12:35 AM 44.6 °F 39.2 °F 32.0 °F 61% 30.19 in 10.0 mi ESE 10.4 mph - N/A   Overcast
12:55 AM 46.4 °F 40.7 °F 30.2 °F 53% 30.19 in 10.0 mi ESE 12.7 mph - N/A   Overcast
1:15 AM 46.4 °F 40.4 °F 30.2 °F 53% 30.19 in 10.0 mi SE 13.8 mph - N/A   Overcast
1:35 AM 46.4 °F 40.7 °F 30.2 °F 53% 30.19 in 10.0 mi SE 12.7 mph 17.3 mph N/A   Overcast
1:55 AM 46.4 °F 41.5 °F 32.0 °F 57% 30.19 in 10.0 mi SE 10.4 mph - N/A   Overcast
2:35 AM 44.6 °F 39.7 °F 32.0 °F 61% 30.19 in 10.0 mi SE 9.2 mph - N/A   Overcast
2:55 AM 44.6 °F 39.2 °F 32.0 °F 61% 30.18 in 10.0 mi SE 10.4 mph - N/A   Overcast
3:15 AM 44.6 °F 39.2 °F 32.0 °F 61% 30.18 in 10.0 mi SE 10.4 mph - N/A   Overcast
3:35 AM 44.6 °F 39.2 °F 32.0 °F 61% 30.18 in 10.0 mi SE 10.4 mph - N/A   Overcast
3:55 AM 44.6 °F 38.8 °F 32.0 °F 61% 30.17 in 10.0 mi SE 11.5 mph 16.1 mph N/A   Overcast
4:15 AM 46.4 °F 41.1 °F 32.0 °F 57% 30.17 in 10.0 mi SSE 11.5 mph - N/A   Overcast
4:35 AM 44.6 °F 40.7 °F 32.0 °F 61% 30.17 in 10.0 mi SSE 6.9 mph - N/A   Overcast
4:55 AM 44.6 °F 40.2 °F 32.0 °F 61% 30.17 in 10.0 mi SE 8.1 mph - N/A   Overcast
5:15 AM 44.6 °F 40.2 °F 32.0 °F 61% 30.17 in 10.0 mi SSE 8.1 mph - N/A   Overcast
5:35 AM 46.4 °F 41.9 °F 32.0 °F 57% 30.17 in 10.0 mi SSE 9.2 mph - N/A   Overcast
5:55 AM 46.4 °F 41.9 °F 32.0 °F 57% 30.17 in 10.0 mi SSE 9.2 mph - N/A   Overcast
6:15 AM 44.6 °F 40.7 °F 32.0 °F 61% 30.17 in 10.0 mi SE 6.9 mph - N/A   Overcast
6:35 AM 44.6 °F 40.2 °F 32.0 °F 61% 30.17 in 10.0 mi SE 8.1 mph - N/A   Overcast
6:55 AM 44.6 °F 40.2 °F 32.0 °F 61% 30.18 in 10.0 mi SE 8.1 mph - N/A   Overcast
7:15 AM 44.6 °F 40.2 °F 32.0 °F 61% 30.18 in 10.0 mi SE 8.1 mph - N/A   Mostly Cloudy
7:35 AM 44.6 °F 40.2 °F 32.0 °F 61% 30.18 in 10.0 mi SE 8.1 mph - N/A   Scattered Clouds
7:55 AM 44.6 °F 40.2 °F 32.0 °F 61% 30.19 in 10.0 mi SE 8.1 mph - N/A   Clear
8:15 AM 44.6 °F 40.2 °F 32.0 °F 61% 30.19 in 10.0 mi SE 8.1 mph - N/A   Clear
8:35 AM 46.4 °F 41.9 °F 32.0 °F 57% 30.19 in 10.0 mi SSE 9.2 mph - N/A   Clear
8:55 AM 50.0 °F - 32.0 °F 50% 30.20 in 10.0 mi SSE 10.4 mph - N/A   Scattered Clouds
9:15 AM 51.8 °F - 33.8 °F 50% 30.20 in 10.0 mi South 8.1 mph - N/A   Scattered Clouds
9:35 AM 53.6 °F - 33.8 °F 47% 30.20 in 10.0 mi South 11.5 mph 17.3 mph N/A   Clear
9:55 AM 55.4 °F - 33.8 °F 44% 30.19 in 10.0 mi South 15.0 mph - N/A   Clear
10:15 AM 57.2 °F - 35.6 °F 44% 30.20 in 10.0 mi SSW 16.1 mph 20.7 mph N/A   Clear
10:35 AM 57.2 °F - 35.6 °F 44% 30.20 in 10.0 mi SSW 12.7 mph - N/A   Mostly Cloudy
10:55 AM 59.0 °F - 39.2 °F 48% 30.20 in 10.0 mi SSW 11.5 mph - N/A   Scattered Clouds
11:15 AM 59.0 °F - 41.0 °F 51% 30.20 in 10.0 mi SW 12.7 mph - N/A   Clear
11:35 AM 60.8 °F - 41.0 °F 48% 30.20 in 10.0 mi SW 8.1 mph - N/A   Clear
11:55 AM 62.6 °F - 42.8 °F 48% 30.19 in 10.0 mi SSW 6.9 mph - N/A   Clear
12:15 PM 62.6 °F - 42.8 °F 48% 30.19 in 10.0 mi SW 10.4 mph - N/A   Clear
12:35 PM 62.6 °F - 44.6 °F 52% 30.18 in 10.0 mi SW 11.5 mph - N/A   Clear
12:55 PM 62.6 °F - 42.8 °F 48% 30.18 in 10.0 mi SW 12.7 mph 16.1 mph N/A   Scattered Clouds
1:15 PM 64.4 °F - 44.6 °F 49% 30.17 in 10.0 mi SSW 11.5 mph 18.4 mph N/A   Clear
1:35 PM 64.4 °F - 46.4 °F 52% 30.17 in 10.0 mi WSW 11.5 mph - N/A   Clear
1:55 PM 64.4 °F - 44.6 °F 49% 30.16 in 10.0 mi WSW 13.8 mph 18.4 mph N/A   Scattered Clouds
2:15 PM 66.2 °F - 44.6 °F 46% 30.15 in 10.0 mi SW 11.5 mph - N/A   Scattered Clouds
2:35 PM 66.2 °F - 44.6 °F 46% 30.15 in 10.0 mi SW 10.4 mph - N/A   Clear
2:55 PM 66.2 °F - 44.6 °F 46% 30.14 in 10.0 mi SW 9.2 mph - N/A   Scattered Clouds
3:15 PM 66.2 °F - 44.6 °F 46% 30.14 in 10.0 mi SW 9.2 mph - N/A   Scattered Clouds
3:35 PM 66.2 °F - 46.4 °F 49% 30.13 in 10.0 mi SW 9.2 mph - N/A   Scattered Clouds
3:55 PM 68.0 °F - 44.6 °F 43% 30.12 in 10.0 mi South 6.9 mph - N/A   Scattered Clouds
4:15 PM 66.2 °F - 44.6 °F 46% 30.12 in 10.0 mi SSE 4.6 mph - N/A   Scattered Clouds
4:35 PM 68.0 °F - 46.4 °F 46% 30.11 in 10.0 mi SSW 11.5 mph - N/A   Scattered Clouds
4:55 PM 68.0 °F - 46.4 °F 46% 30.11 in 10.0 mi SSW 10.4 mph 17.3 mph N/A   Clear
5:15 PM 68.0 °F - 46.4 °F 46% 30.11 in 10.0 mi SSW 12.7 mph - N/A   Clear
5:35 PM 68.0 °F - 46.4 °F 46% 30.10 in 10.0 mi SSW 9.2 mph - N/A   Clear
5:55 PM 66.2 °F - 46.4 °F 49% 30.10 in 10.0 mi SSW 12.7 mph 16.1 mph N/A   Mostly Cloudy
6:15 PM 64.4 °F - 44.6 °F 49% 30.11 in 10.0 mi SW 10.4 mph - N/A   Scattered Clouds
6:35 PM 62.6 °F - 46.4 °F 55% 30.12 in 10.0 mi SSW 11.5 mph - N/A   Clear
6:55 PM 62.6 °F - 44.6 °F 52% 30.12 in 10.0 mi South 9.2 mph - N/A   Scattered Clouds
7:15 PM 60.8 °F - 44.6 °F 55% 30.12 in 10.0 mi South 5.8 mph - N/A   Scattered Clouds
7:35 PM 60.8 °F - 44.6 °F 55% 30.12 in 10.0 mi South 5.8 mph - N/A   Scattered Clouds
7:55 PM 59.0 °F - 44.6 °F 59% 30.13 in 10.0 mi Calm Calm - N/A   Scattered Clouds
8:15 PM 59.0 °F - 44.6 °F 59% 30.13 in 10.0 mi SE 5.8 mph - N/A   Mostly Cloudy
8:35 PM 59.0 °F - 44.6 °F 59% 30.14 in 10.0 mi SE 5.8 mph - N/A   Scattered Clouds
8:55 PM 59.0 °F - 44.6 °F 59% 30.14 in 10.0 mi SE 4.6 mph - N/A   Scattered Clouds
9:15 PM 57.2 °F - 44.6 °F 63% 30.15 in 10.0 mi SSE 5.8 mph - N/A   Scattered Clouds
9:35 PM 57.2 °F - 44.6 °F 63% 30.15 in 10.0 mi SE 5.8 mph - N/A   Mostly Cloudy
9:55 PM 55.4 °F - 44.6 °F 67% 30.16 in 10.0 mi SE 5.8 mph - N/A   Overcast
10:15 PM 55.4 °F - 44.6 °F 67% 30.16 in 10.0 mi SE 4.6 mph - N/A   Overcast
10:35 PM 55.4 °F - 44.6 °F 67% 30.16 in 10.0 mi SE 5.8 mph - N/A   Overcast
10:55 PM 55.4 °F - 44.6 °F 67% 30.15 in 10.0 mi SE 6.9 mph - N/A   Overcast
11:15 PM 53.6 °F - 44.6 °F 72% 30.15 in 10.0 mi SSE 8.1 mph - N/A   Scattered Clouds
11:35 PM 53.6 °F - 44.6 °F 72% 30.14 in 10.0 mi SSE 8.1 mph - N/A   Clear
11:55 PM 53.6 °F - 44.6 °F 72% 30.14 in 10.0 mi SSE 8.1 mph - N/A   Clear